Caribbean Princess — ZCDG8 — position and weather

sailwx.info

Track history (hours):
 
Tides and Currents Weather Stations Pressure Air Temp Water Temp Dewpoint Dewpoint Depression Visibility Wind Speed Wind Dir Waves Ship Positions

Caribbean Princess

Operator: Princess Cruises

Last reported at 2014-Oct-23 23:14 UTC. Time now 2014-Oct-24 16:52 UTC.
Position N 26°13' W 079°20'.

Type: Passenger vessel. MMSI: 310423000.

Date/timePositionNaut miles runAvg speedWind from/ knotsBaromVisibWave heightAir tempDewpointWater temp
2014-Oct-23 23:14N 26°13' W 079°20'1318.6
2014-Oct-23 22:33N 26°11' W 079°34'1818.4
2014-Oct-23 21:33N 26°07' W 079°54'1211.8
2014-Oct-23 20:33N 26°06' W 080°07'0 0.1
2014-Oct-23 19:31N 26°06' W 080°07'0 0.0
2014-Oct-23 18:31N 26°06' W 080°07'0 0.0
2014-Oct-23 17:31N 26°06' W 080°07'0 0.0
2014-Oct-23 16:31N 26°06' W 080°07'0 0.0
2014-Oct-23 15:31N 26°06' W 080°07'0 0.0
2014-Oct-23 14:31N 26°06' W 080°07'0 0.0
2014-Oct-23 13:31N 26°06' W 080°07'0 0.0
2014-Oct-23 12:22N 26°06' W 080°07'0 0.0
2014-Oct-23 11:25N 26°06' W 080°07'0 0.0
2014-Oct-23 10:25N 26°06' W 080°07'0 0.0
2014-Oct-23 09:33N 26°06' W 080°07'7 7.0
2014-Oct-23 08:33N 26°05' W 079°59'1514.6
2014-Oct-23 07:33N 25°51' W 079°53'1414.2
2014-Oct-23 06:34N 25°37' W 079°53'39015.9
2014-Oct-22 06:00N 21°54' W 085°42'111 6.8 130 / 451010.0 5.4 3.525.023.530.0
2014-Oct-21 13:33N 20°29' W 086°59'  
2014-Oct-18 22:27N 25°47' W 079°51'1516.8
2014-Oct-18 21:33N 25°60' W 080°01'9 8.6
2014-Oct-18 20:33N 26°06' W 080°07'0 0.0
2014-Oct-18 19:31N 26°06' W 080°07'0 0.0
2014-Oct-18 18:31N 26°06' W 080°07'0 0.0
2014-Oct-18 17:31N 26°06' W 080°07'0 0.0
2014-Oct-18 16:31N 26°06' W 080°07'0 0.0
2014-Oct-18 15:31N 26°06' W 080°07'0 0.0
2014-Oct-18 14:31N 26°06' W 080°07'0 0.0
2014-Oct-18 13:22N 26°06' W 080°07'0 0.0
2014-Oct-18 12:22N 26°06' W 080°07'0 0.0
2014-Oct-18 11:25N 26°06' W 080°07'0 0.0
2014-Oct-18 10:33N 26°06' W 080°07'6 5.5
2014-Oct-18 09:33N 26°05' W 080°01'1212.5
2014-Oct-18 08:33N 25°55' W 079°53'1513.8
2014-Oct-18 07:29N 25°40' W 079°52'49715.5
2014-Oct-16 23:26N 20°34' W 086°58'5 0.5
2014-Oct-16 12:33N 20°29' W 086°59'  
Track history (hours):
 
Tides and Currents Weather Stations Pressure Air Temp Water Temp Dewpoint Dewpoint Depression Visibility Wind Speed Wind Dir Waves Ship Positions

Caribbean Princess

Operator: Princess Cruises

Last reported at 2014-Oct-23 23:14 UTC. Time now 2014-Oct-24 16:52 UTC.
Position N 26°13' W 079°20'.

Type: Passenger vessel. MMSI: 310423000.

Date/timePositionNaut miles runAvg speedWind from/ knotsBaromVisibWave heightAir tempDewpointWater temp
2014-Oct-23 23:14N 26°13' W 079°20'1318.6
2014-Oct-23 22:33N 26°11' W 079°34'1818.4
2014-Oct-23 21:33N 26°07' W 079°54'1211.8
2014-Oct-23 20:33N 26°06' W 080°07'0 0.1
2014-Oct-23 19:31N 26°06' W 080°07'0 0.0
2014-Oct-23 18:31N 26°06' W 080°07'0 0.0
2014-Oct-23 17:31N 26°06' W 080°07'0 0.0
2014-Oct-23 16:31N 26°06' W 080°07'0 0.0
2014-Oct-23 15:31N 26°06' W 080°07'0 0.0
2014-Oct-23 14:31N 26°06' W 080°07'0 0.0
2014-Oct-23 13:31N 26°06' W 080°07'0 0.0
2014-Oct-23 12:22N 26°06' W 080°07'0 0.0
2014-Oct-23 11:25N 26°06' W 080°07'0 0.0
2014-Oct-23 10:25N 26°06' W 080°07'0 0.0
2014-Oct-23 09:33N 26°06' W 080°07'7 7.0
2014-Oct-23 08:33N 26°05' W 079°59'1514.6
2014-Oct-23 07:33N 25°51' W 079°53'1414.2
2014-Oct-23 06:34N 25°37' W 079°53'39015.9
2014-Oct-22 06:00N 21°54' W 085°42'111 6.8 130 / 451010.0 5.4 3.525.023.530.0
2014-Oct-21 13:33N 20°29' W 086°59'  
2014-Oct-18 22:27N 25°47' W 079°51'1516.8
2014-Oct-18 21:33N 25°60' W 080°01'9 8.6
2014-Oct-18 20:33N 26°06' W 080°07'0 0.0
2014-Oct-18 19:31N 26°06' W 080°07'0 0.0
2014-Oct-18 18:31N 26°06' W 080°07'0 0.0
2014-Oct-18 17:31N 26°06' W 080°07'0 0.0
2014-Oct-18 16:31N 26°06' W 080°07'0 0.0
2014-Oct-18 15:31N 26°06' W 080°07'0 0.0
2014-Oct-18 14:31N 26°06' W 080°07'0 0.0
2014-Oct-18 13:22N 26°06' W 080°07'0 0.0
2014-Oct-18 12:22N 26°06' W 080°07'0 0.0
2014-Oct-18 11:25N 26°06' W 080°07'0 0.0
2014-Oct-18 10:33N 26°06' W 080°07'6 5.5
2014-Oct-18 09:33N 26°05' W 080°01'1212.5
2014-Oct-18 08:33N 25°55' W 079°53'1513.8
2014-Oct-18 07:29N 25°40' W 079°52'49715.5
2014-Oct-16 23:26N 20°34' W 086°58'5 0.5
2014-Oct-16 12:33N 20°29' W 086°59'  

Dump ship's entire track history